Flag for United Kingdom Weather past 2 weeks in Haywards Heath, England, United Kingdom

Now
57 °F

Partly cloudy.


Feels Like: 55 °F
Forecast: 48 / 55 °F
Wind: 8 mph from Southwest

Location: London / Gatwick Airport

Current Time: May 5, 2015 at 4:19:22 AM

Latest Report: May 5, 2015 at 3:50 AM


Visibility: N/A

Pressure: 29.21 "Hg

Humidity: 94%

Dew point: 55 °F

Location of Haywards HeathLocation

Historic Weather in Haywards Heath — Graph

°F

Haywards Heath temperature yesterday

Maximum temperature yesterday: 63 °F (at 11:50 AM)
Minimum temperature yesterday: 50 °F (at 5:50 AM)
Average temperature yesterday: 56 °F

Past Weeks' High & Low Weather Summary

 TemperatureHumidityPressure
High64 °F (Apr 20, 1:20 PM)100% (Apr 20, 5:50 AM)30.54 "Hg (Apr 20, 5:50 AM)
Low34 °F (Apr 20, 3:50 AM)36% (Apr 28, 3:20 PM)29.24 "Hg (May 5, 1:50 AM)
Average50 °F75%29.94 "Hg
* Reported Apr 20 2:20 AM — May 5 2:50 AM, Haywards Heath, Weather by CustomWeather, © 2015

Note: Actual official high and low records may vary slightly from our data, if they occured in-between our weather recording intervals... More about our weather records

Advertising

Haywards Heath weather history for previous 24 hours

 ConditionsComfort  
Time TempWeatherWind HumidityBarometerVisibility
2:50 AM
Tue, May 5
59 °FPassing clouds.8 mph94%29.24 "Hg6 mi
2:20 AM57 °FPartly cloudy.6 mph100%29.24 "Hg5 mi
1:50 AM57 °FPassing clouds.5 mph94%29.24 "Hg4 mi
1:20 AM55 °FPassing clouds.6 mph100%29.27 "HgN/A
12:50 AM55 °FPartly cloudy.9 mph94%29.27 "HgN/A
12:20 AM55 °FRain. Passing clouds.9 mph94%29.30 "Hg2 mi
11:50 PM
Mon, May 4
54 °FRain. Partly cloudy.10 mph100%29.30 "Hg3 mi
11:20 PM55 °FLight rain. Passing clouds.10 mph94%29.33 "Hg4 mi
10:50 PM55 °FLight rain. Passing clouds.9 mph94%29.36 "Hg2 mi
9:50 PM55 °FLight rain. Partly cloudy.10 mph94%29.39 "Hg4 mi
9:20 PM54 °FLight rain. Partly sunny.8 mph100%29.42 "Hg4 mi
8:50 PM55 °FLight rain. Broken clouds.9 mph94%29.45 "Hg6 mi
8:20 PM55 °FLight rain. Passing clouds.8 mph88%29.47 "HgN/A
7:50 PM55 °FLight rain. Passing clouds.7 mph88%29.47 "HgN/A
7:20 PM57 °FLight rain. Passing clouds.8 mph77%29.50 "HgN/A
6:50 PM57 °FLight rain. Passing clouds.9 mph77%29.53 "HgN/A
6:20 PM57 °FSunny.8 mph77%29.53 "Hg10 mi
5:50 PM59 °FSunny.6 mph72%29.56 "Hg10 mi
5:20 PM59 °FSunny.7 mph68%29.56 "Hg10 mi
4:50 PM59 °FPassing clouds.2 mph68%29.59 "HgN/A
4:20 PM59 °FPassing clouds.6 mph68%29.62 "HgN/A
3:50 PM59 °FPassing clouds.6 mph68%29.62 "HgN/A
3:20 PM59 °FPassing clouds.7 mph68%29.62 "HgN/A
2:50 PM59 °FPassing clouds.7 mph68%29.65 "HgN/A
2:20 PM59 °FPassing clouds.10 mph63%29.65 "HgN/A
1:50 PM59 °FPassing clouds.9 mph59%29.68 "HgN/A
1:20 PM61 °FPassing clouds.10 mph55%29.68 "HgN/A
12:50 PM59 °FPassing clouds.12 mph59%29.68 "HgN/A
12:20 PM61 °FPassing clouds.12 mph59%29.68 "HgN/A
11:50 AM63 °FPassing clouds.10 mph52%29.68 "HgN/A
11:20 AM61 °FPassing clouds.9 mph55%29.68 "HgN/A
10:50 AM59 °FPassing clouds.8 mph59%29.68 "HgN/A
10:20 AM57 °FPassing clouds.10 mph59%29.68 "HgN/A
9:50 AM55 °FPassing clouds.9 mph63%29.68 "HgN/A
9:20 AM55 °FPassing clouds.12 mph67%29.68 "HgN/A
8:50 AM55 °FPartly sunny.9 mph72%29.71 "HgN/A
8:20 AM54 °FScattered clouds.10 mph77%29.71 "HgN/A
7:50 AM54 °FPassing clouds.9 mph82%29.71 "HgN/A
7:20 AM52 °FScattered clouds.9 mph88%29.68 "HgN/A
6:50 AM52 °FScattered clouds.10 mph82%29.65 "HgN/A
6:20 AM50 °FPassing clouds.9 mph88%29.65 "HgN/A
5:50 AM50 °FPassing clouds.9 mph88%29.62 "HgN/A
5:20 AM52 °FPassing clouds.9 mph88%29.62 "HgN/A
4:50 AM52 °FPassing clouds.8 mph88%29.62 "HgN/A
4:20 AM52 °FPassing clouds.8 mph88%29.62 "HgN/A
Weather by CustomWeather, © 2015

See weather overviewHow to use our weather pages